Temperature
22 22 22 21 21 21 20 20 20 19 19 18 18 18 17 17 17 17 17 17 17 17 17 17 17 17 17 17 17 17 17 17 18 18 17 17 17 17 17 17 17 16 17
22 22 22 22 21 21 20 19 19 19 19 18 18 18 17 17 17 17 17 17 17 17 17 17 17 17 17 17 17 17 17 17 17 18 17 17 17 17 17 17 17 16 17
22 22 22 22 22 21 20 20 19 19 19 18 17 17 16 16 16 17 17 17 17 17 17 17 17 17 17 17 17 17 17 17 17 17 17 16 16 17 17 17 17 17 17
22 22 22 22 22 21 21 20 20 19 18 18 17 17 17 16 17 17 17 17 17 17 17 17 16 17 17 17 16 17 17 17 17 17 17 16 16 17 17 17 17 17 17
22 22 22 22 22 21 21 21 20 19 19 18 17 17 17 17 17 16 16 16 16 16 17 16 16 16 16 17 16 16 17 17 17 17 16 16 16 16 17 17 16 16 16
22 22 22 22 21 21 21 20 20 19 18 18 17 16 17 17 16 16 16 16 16 16 17 16 16 16 16 16 16 16 17 17 16 16 16 16 16 16 16 16 16 16 16
21 21 21 21 21 20 20 20 19 19 18 18 17 16 17 16 16 16 16 16 16 16 16 16 16 16 16 16 16 16 17 16 16 16 16 16 16 16 16 16 16 16 16
21 21 21 20 20 19 19 19 19 19 18 18 17 17 17 16 16 15 15 16 16 16 16 16 16 16 16 16 16 16 16 16 16 16 17 17 17 16 16 16 15 15 16
21 21 21 21 20 19 19 19 18 18 18 17 17 17 16 16 15 15 15 15 15 16 16 16 16 16 16 16 16 16 16 16 16 16 16 16 16 16 16 16 16 16 15
21 21 21 21 20 20 19 18 18 18 17 17 17 17 16 15 14 14 14 14 14 15 16 16 16 16 16 16 16 15 15 15 15 15 16 16 16 16 16 16 16 16 15
21 21 21 21 20 19 18 18 17 17 17 17 16 16 16 15 14 14 13 14 14 14 15 15 15 15 15 16 15 15 15 15 15 15 15 16 16 16 16 16 15 15 15
20 21 21 20 20 19 18 17 16 15 15 15 14 14 14 13 13 13 13 15 15 15 15 15 15 15 15 15 14 15 15 14 14 15 15 16 16 16 16 15 15 15 15
20 20 20 20 19 19 18 17 15 15 14 14 14 14 13 13 13 13 13 13 14 15 15 15 15 15 14 14 14 14 15 14 14 14 15 15 15 15 15 15 15 15 15
20 20 19 19 19 18 17 18 16 14 14 14 14 14 14 13 13 13 13 12 13 13 14 15 15 14 14 14 14 14 15 15 14 14 14 15 15 15 15 15 15 15 14
18 18 18 18 18 18 18 17 16 15 14 14 13 14 13 13 13 13 12 12 12 13 13 13 14 14 13 14 14 15 15 14 14 14 14 14 14 14 15 15 14 14 14
17 17 17 18 18 18 18 17 17 16 14 14 13 13 13 13 12 12 12 12 12 12 12 12 13 13 13 14 14 14 14 14 14 13 14 14 14 14 14 14 14 14 14
15 16 17 17 17 17 17 17 16 16 16 15 14 13 13 12 12 12 12 12 12 12 12 12 13 13 13 14 14 14 14 14 13 13 14 13 13 13 13 13 13 13 13
15 16 16 16 16 16 16 16 15 15 15 14 14 13 12 12 12 12 12 12 12 12 12 12 13 13 13 13 13 13 14 14 14 13 13 13 13 13 13 13 13 13 13
14 14 15 15 15 15 15 15 15 14 14 13 13 13 12 12 12 12 12 11 11 12 12 12 12 12 12 13 13 13 13 13 13 13 13 13 13 13 13 13 13 13 13
13 13 13 14 14 14 15 14 14 13 12 12 11 11 11 11 11 11 11 11 11 11 12 12 12 12 12 12 12 13 12 12 13 12 12 12 12 13 13 13 13 13 13
12 13 13 12 13 14 14 13 13 12 11 11 11 10 10 10 11 10 10 10 11 11 11 11 11 11 11 12 12 12 12 12 12 13 13 12 12 13 13 13 13 13 13
12 12 11 12 12 13 13 13 12 11 11 10 10 10 10 10 11 11 10 10 10 11 10 10 10 10 10 11 11 12 11 11 11 11 12 12 11 12 12 12 12 12 12
12 11 11 12 12 13 13 13 12 12 11 10 10 10 10 10 10 10 10 10 10 10 9 10 10 9 9 10 10 10 11 12 11 10 10 11 11 11 11 11 11 12 12
11 11 9 11 11 12 12 12 12 11 10 10 9 9 9 9 9 9 9 9 9 9 9 9 9 9 9 9 10 10 10 10 10 10 9 9 10 10 10 10 10 11 11
9 10 9 10 11 11 11 11 11 10 10 9 9 9 9 8 9 8 8 8 8 8 8 9 9 9 9 8 9 9 9 9 9 9 10 9 9 9 9 9 9 9 9
7 8 8 8 10 10 10 10 10 10 9 9 8 8 8 8 8 8 8 8 8 7 8 8 8 8 8 8 8 8 8 8 8 8 8 8 8 8 8 8 9 9 9
Wind_Speed
3 7 14 13 12 11 11 10 9 8 6 5 3 4 5 5 5 5 6 7 7 6 5 5 5 4 4 5 6 5 5 5 5 4 5 5 5 4 3 2 2 4 4
1 8 14 13 12 11 11 11 10 9 7 5 4 5 6 5 6 7 7 8 8 8 7 6 6 6 6 6 6 6 6 5 4 4 3 3 4 4 3 1 2 5 2
2 9 12 13 12 12 11 11 10 10 8 7 6 6 5 5 5 6 6 8 9 9 8 6 7 8 8 7 6 6 7 6 5 3 2 4 5 4 3 2 0 2 2
3 8 10 14 13 12 12 11 11 10 8 8 8 6 4 4 5 6 6 8 8 8 7 7 7 8 8 9 8 8 7 7 6 4 6 4 4 6 4 4 2 1 0
3 6 8 13 13 12 12 12 12 11 10 8 9 7 6 5 5 4 3 4 5 6 6 6 7 8 9 8 9 10 10 9 6 6 4 3 4 7 5 5 4 4 1
3 5 7 10 12 11 11 11 10 10 10 7 7 8 6 5 2 1 1 1 2 3 4 5 7 7 8 9 9 10 11 11 7 7 4 3 4 5 4 5 3 2 3
3 3 5 8 9 10 10 10 10 10 9 7 6 6 6 6 4 3 2 1 1 3 4 5 6 8 9 11 11 11 11 9 8 6 6 5 4 3 4 5 4 3 2
2 2 3 7 9 10 10 11 11 10 10 8 8 7 7 6 5 4 3 3 2 2 4 6 6 8 9 10 12 12 12 10 8 7 6 6 2 3 5 4 4 5 5
2 2 3 6 9 9 10 11 10 10 9 8 8 7 6 7 6 4 4 4 4 3 4 6 6 7 8 9 10 11 11 9 9 6 6 5 4 6 6 4 5 7 7
3 1 3 6 8 9 10 11 10 9 10 9 8 5 2 4 2 1 3 1 2 2 3 5 7 7 7 8 9 11 11 9 9 7 6 3 0 5 5 4 4 6 5
1 1 1 5 7 9 9 9 10 9 9 8 8 7 6 6 5 5 3 2 4 4 4 5 6 6 7 9 10 10 10 10 10 7 6 2 3 4 4 4 3 4 4
3 2 3 4 6 7 8 7 8 8 9 9 9 8 8 7 6 3 4 2 6 6 7 7 7 7 7 9 11 11 11 11 9 7 5 3 5 5 5 5 6 5 6
3 2 3 4 4 5 5 4 5 6 6 7 7 7 7 6 5 4 6 6 7 8 9 10 10 10 10 9 9 9 11 9 10 9 6 4 6 6 6 7 7 6 6
3 2 3 2 1 3 5 4 4 5 5 6 7 8 7 6 5 5 5 5 6 6 7 8 8 10 11 11 10 9 9 9 11 9 8 7 7 7 8 9 9 8 7
4 1 2 1 2 4 4 4 4 5 5 6 6 7 7 6 6 5 4 4 4 4 6 7 9 11 11 10 7 6 8 10 12 11 8 9 9 9 9 10 9 8 8
5 3 1 0 2 5 5 5 4 4 4 5 6 7 7 6 4 3 2 3 4 4 6 7 9 10 10 8 7 7 7 9 11 10 8 7 8 8 8 9 9 9 9
6 5 4 3 2 4 5 4 3 3 4 4 5 6 7 6 6 5 4 4 4 5 6 6 7 7 6 6 7 7 7 8 9 10 9 8 8 9 8 9 10 9 9
8 8 7 5 6 5 3 3 3 3 3 4 4 5 6 7 8 7 6 5 5 5 6 6 5 6 7 6 7 7 7 8 9 10 11 11 10 9 11 11 10 10 10
11 10 9 8 7 6 5 4 3 3 3 3 4 4 6 7 7 6 6 6 5 6 6 6 6 6 6 6 7 7 7 8 8 10 12 12 10 9 9 8 10 10 11
10 10 11 9 8 6 5 4 4 4 4 4 4 3 4 5 5 5 4 4 5 4 4 4 7 5 5 6 6 7 6 5 5 6 9 9 8 8 8 7 7 9 11
10 11 12 11 10 8 6 6 6 5 5 5 3 3 3 4 5 5 4 3 4 4 4 4 3 4 2 2 4 4 5 5 6 4 6 6 6 6 5 5 5 6 6
12 13 13 13 12 11 8 7 5 5 5 4 4 4 3 3 3 3 4 4 3 3 4 4 5 4 2 3 3 2 3 4 5 4 4 4 3 3 2 2 2 3 5
16 13 13 13 12 12 9 6 5 4 5 6 6 5 4 4 4 4 4 4 4 4 4 4 4 4 3 2 3 3 3 5 5 5 4 3 2 1 0 1 1 2 3
23 15 13 12 12 11 10 8 9 9 9 10 8 6 4 4 4 4 4 4 4 5 5 5 4 3 4 4 2 2 3 0 3 3 4 2 2 1 1 2 3 3 4
25 18 13 13 12 11 10 10 10 10 10 8 8 7 6 5 5 4 4 4 4 5 5 5 5 5 5 5 5 3 3 2 2 3 4 3 3 3 3 3 4 4 3
25 23 18 16 15 14 12 11 11 11 11 10 9 8 7 6 5 4 4 4 4 5 5 5 5 6 6 6 5 5 5 4 5 5 5 6 5 4 4 5 5 4 4
Wind_Direction
151 152 172 177 180 183 187 190 191 193 193 195 207 220 225 223 220 208 210 204 189 187 198 205 205 195 191 194 194 168 144 135 116 87 67 66 77 95 113 136 227 233 131
101 156 165 175 179 185 189 192 194 198 202 205 221 243 241 238 233 224 213 210 202 201 207 213 219 210 215 213 207 179 155 139 129 109 105 123 102 91 96 111 308 354 350
120 151 163 174 179 184 190 194 199 206 211 214 219 238 251 237 244 236 218 216 210 212 217 222 222 220 219 220 211 180 162 157 150 139 215 208 136 122 119 118 109 343 338
143 155 167 167 181 186 191 196 203 206 214 229 234 228 258 275 265 250 210 214 216 219 224 231 227 228 225 219 203 188 178 177 168 195 228 215 171 142 158 154 144 115 202
167 163 162 164 184 192 196 200 205 210 220 226 237 228 231 253 266 244 212 213 223 218 217 227 228 230 232 224 209 201 196 189 179 225 237 225 205 145 168 166 159 133 132
185 168 159 178 190 200 206 210 216 222 228 225 240 231 223 237 250 204 125 210 263 239 222 227 230 233 233 224 211 205 202 197 196 235 241 218 220 132 187 181 158 136 128
211 178 167 182 199 207 214 219 223 229 229 222 242 230 225 235 236 243 180 149 274 242 250 257 249 241 232 222 213 203 199 191 220 235 242 232 211 148 222 196 202 215 202
270 183 181 177 206 210 214 220 224 229 223 222 235 243 238 241 240 239 222 214 244 256 254 259 260 253 241 228 218 206 201 196 232 245 245 243 188 206 229 222 237 249 260
61 190 209 206 205 214 218 220 224 227 227 224 230 247 249 235 227 242 267 233 228 247 281 276 263 262 249 238 228 217 213 200 243 253 254 246 192 226 225 235 273 278 270
67 118 227 230 222 221 217 212 216 219 219 213 214 233 291 283 277 266 307 303 309 301 302 311 282 262 257 250 235 228 221 202 240 252 253 258 255 229 228 246 272 283 261
228 25 274 248 237 232 230 210 210 212 217 214 210 208 220 235 241 247 256 4 301 300 300 305 316 304 276 258 246 242 227 228 235 236 244 167 234 236 244 251 285 293 238
274 306 317 297 263 241 231 226 219 209 211 211 212 217 226 233 237 273 297 273 270 268 265 264 277 292 272 251 238 233 235 231 233 230 231 179 232 234 236 254 271 279 258
298 313 327 321 293 245 219 228 212 206 210 215 221 227 233 239 242 248 256 247 251 238 249 247 250 251 250 248 249 242 239 218 222 225 214 200 237 241 242 249 259 267 268
250 304 341 340 341 201 191 182 206 199 202 212 216 224 228 231 240 247 256 259 256 252 249 248 251 247 248 247 241 237 233 213 218 217 209 205 226 236 243 249 252 257 264
236 258 357 4 118 144 165 170 189 197 204 215 219 226 234 241 246 245 244 246 251 247 247 247 241 236 235 236 229 221 216 217 218 212 213 200 222 231 239 245 247 255 265
232 235 264 238 146 150 159 172 179 197 213 226 232 228 229 243 253 260 250 249 260 258 254 249 243 239 233 217 208 202 207 222 218 213 216 208 222 237 245 245 247 258 269
234 235 238 237 209 171 162 168 179 189 213 227 239 237 226 220 217 207 206 215 225 246 258 251 253 248 240 217 211 202 202 223 222 216 218 221 212 224 235 243 249 255 264
238 235 235 237 238 227 206 193 196 197 213 220 233 233 229 223 215 217 222 229 227 228 239 236 228 221 216 206 209 204 202 209 222 228 225 222 222 222 221 225 235 243 252
242 240 237 234 236 230 224 221 218 211 218 213 223 233 230 222 217 222 240 246 244 243 242 239 229 229 211 201 216 214 214 213 214 224 228 226 226 231 235 213 217 237 247
258 249 243 236 233 225 219 217 212 208 211 210 211 213 212 205 202 213 225 225 226 234 242 251 241 226 232 223 214 211 219 217 215 232 235 226 224 226 234 239 229 230 227
272 254 244 239 232 223 217 215 214 211 205 198 190 197 209 204 203 211 211 207 211 210 207 211 209 208 202 226 224 210 213 210 210 207 239 222 212 215 223 231 238 247 228
297 265 248 241 237 232 231 231 232 212 200 179 156 143 146 157 166 185 198 202 199 190 178 184 189 187 183 194 213 167 189 200 206 199 202 188 183 180 189 208 232 251 268
334 284 254 246 242 237 230 214 200 188 186 185 185 172 154 152 151 155 167 185 191 196 186 174 178 198 194 194 246 257 215 215 166 181 179 162 149 149 90 36 309 288 285
346 312 273 263 254 244 231 221 216 218 216 209 202 193 182 185 181 170 171 181 195 200 192 187 186 195 205 210 225 275 292 292 222 182 189 205 239 281 304 306 300 300 293
356 340 297 284 269 253 243 243 240 239 234 218 209 206 207 200 197 190 193 197 207 211 206 201 204 206 213 211 209 213 226 230 251 234 219 225 255 255 280 289 290 287 300
358 356 332 294 282 268 256 249 243 237 225 214 213 216 217 208 192 191 198 203 216 225 228 222 221 224 225 230 227 220 216 210 213 215 227 236 251 256 278 282 284 295 307
Height
1508 1507 1506 1506 1507 1508 1508 1510 1511 1512 1513 1514 1515 1516 1516 1517 1518 1518 1519 1519 1520 1520 1520 1520 1520 1521 1521 1521 1522 1523 1523 1524 1524 1524 1524 1524 1524 1524 1524 1525 1525 1526 1525
1507 1507 1507 1507 1507 1507 1508 1509 1510 1511 1512 1513 1515 1515 1515 1516 1517 1518 1518 1518 1518 1518 1519 1519 1520 1520 1520 1521 1522 1523 1523 1524 1524 1524 1524 1525 1525 1525 1525 1525 1525 1525 1525
1507 1507 1507 1507 1507 1507 1507 1508 1510 1510 1511 1512 1513 1514 1514 1515 1516 1516 1516 1516 1516 1517 1517 1517 1518 1518 1519 1520 1521 1521 1523 1523 1524 1524 1525 1526 1526 1525 1525 1524 1525 1525 1525
1508 1507 1507 1507 1507 1507 1507 1508 1508 1509 1510 1511 1512 1512 1513 1514 1514 1514 1514 1515 1516 1517 1517 1517 1517 1517 1518 1518 1519 1520 1521 1522 1523 1524 1525 1526 1526 1525 1524 1524 1524 1524 1524
1508 1507 1507 1507 1507 1507 1507 1507 1507 1508 1509 1510 1510 1511 1511 1512 1513 1513 1513 1514 1515 1515 1515 1515 1516 1516 1517 1517 1518 1519 1519 1521 1522 1523 1524 1525 1526 1525 1524 1524 1524 1523 1523
1507 1507 1507 1507 1507 1506 1506 1506 1506 1507 1508 1508 1509 1509 1510 1510 1511 1511 1512 1512 1513 1513 1513 1514 1514 1515 1515 1516 1517 1518 1518 1519 1520 1522 1523 1523 1524 1524 1523 1523 1523 1523 1523
1507 1507 1506 1506 1505 1505 1505 1505 1506 1506 1506 1506 1507 1508 1508 1509 1509 1510 1510 1510 1510 1511 1511 1512 1513 1513 1514 1514 1515 1515 1517 1518 1518 1520 1521 1522 1522 1522 1522 1522 1522 1522 1522
1505 1505 1505 1504 1504 1504 1504 1504 1504 1504 1504 1504 1505 1505 1506 1507 1508 1508 1508 1508 1508 1509 1509 1510 1510 1511 1511 1512 1513 1513 1515 1516 1517 1518 1518 1519 1520 1520 1520 1520 1520 1521 1520
1503 1503 1503 1503 1502 1502 1502 1502 1502 1502 1502 1502 1503 1503 1503 1504 1505 1505 1507 1506 1506 1506 1507 1508 1508 1508 1509 1510 1511 1512 1513 1515 1515 1516 1516 1517 1517 1518 1518 1518 1519 1518 1518
1502 1502 1501 1501 1500 1499 1499 1499 1499 1500 1500 1500 1500 1500 1501 1501 1502 1502 1503 1504 1503 1503 1504 1505 1506 1506 1507 1508 1509 1510 1511 1512 1513 1514 1514 1514 1515 1516 1516 1516 1516 1516 1516
1500 1499 1499 1498 1497 1496 1496 1497 1497 1497 1497 1497 1497 1497 1498 1498 1499 1498 1500 1499 1499 1499 1500 1501 1503 1503 1504 1505 1506 1507 1508 1509 1511 1511 1512 1512 1513 1514 1514 1513 1514 1514 1514
1497 1496 1496 1495 1494 1493 1493 1494 1494 1495 1495 1496 1496 1496 1496 1496 1496 1495 1495 1495 1496 1496 1496 1497 1498 1499 1500 1502 1503 1504 1505 1506 1507 1508 1509 1510 1511 1511 1511 1511 1511 1512 1512
1495 1494 1493 1493 1492 1491 1490 1491 1492 1492 1493 1494 1494 1494 1493 1493 1493 1492 1492 1491 1491 1491 1492 1493 1494 1495 1497 1498 1499 1500 1501 1502 1503 1505 1506 1507 1508 1508 1508 1509 1509 1510 1510
1493 1492 1492 1491 1490 1489 1488 1488 1489 1489 1490 1490 1491 1490 1490 1490 1489 1489 1489 1488 1487 1487 1487 1488 1489 1490 1492 1494 1495 1495 1496 1497 1499 1501 1502 1504 1505 1505 1506 1506 1507 1508 1508
1491 1491 1490 1489 1488 1488 1487 1486 1486 1487 1487 1488 1488 1487 1487 1486 1486 1486 1485 1485 1485 1484 1484 1484 1484 1485 1487 1490 1491 1490 1492 1493 1495 1497 1499 1500 1502 1502 1503 1503 1505 1506 1506
1490 1490 1489 1488 1487 1486 1486 1485 1485 1485 1485 1485 1485 1484 1484 1483 1483 1483 1482 1481 1481 1481 1481 1481 1482 1483 1484 1485 1485 1486 1487 1489 1492 1493 1495 1496 1498 1499 1499 1500 1502 1502 1503
1489 1489 1488 1487 1486 1485 1485 1484 1484 1484 1483 1483 1481 1481 1480 1480 1480 1480 1479 1478 1478 1478 1479 1479 1478 1479 1480 1481 1482 1482 1483 1485 1488 1490 1491 1492 1494 1495 1496 1497 1498 1499 1500
1487 1487 1487 1486 1486 1485 1484 1483 1482 1481 1480 1479 1478 1477 1476 1476 1476 1476 1476 1476 1475 1475 1475 1475 1474 1475 1475 1477 1478 1479 1480 1481 1483 1485 1488 1489 1490 1491 1492 1493 1494 1495 1496
1485 1485 1484 1484 1484 1483 1482 1480 1480 1478 1477 1476 1474 1473 1472 1472 1472 1472 1472 1471 1471 1471 1470 1471 1471 1471 1471 1473 1474 1476 1477 1478 1479 1480 1482 1484 1486 1487 1488 1489 1490 1490 1491
1483 1483 1482 1482 1481 1481 1479 1478 1477 1476 1474 1473 1472 1471 1470 1469 1469 1469 1469 1468 1467 1467 1466 1466 1467 1467 1468 1469 1470 1471 1473 1474 1475 1476 1478 1479 1480 1481 1483 1484 1484 1485 1486
1480 1480 1480 1479 1479 1478 1476 1474 1473 1472 1470 1469 1468 1467 1467 1467 1466 1466 1466 1466 1465 1464 1463 1463 1463 1463 1464 1465 1467 1467 1468 1470 1470 1471 1472 1474 1474 1475 1477 1478 1479 1480 1480
1479 1478 1477 1476 1475 1475 1474 1472 1470 1469 1467 1466 1465 1464 1464 1464 1464 1463 1463 1464 1463 1462 1461 1460 1461 1461 1461 1462 1463 1463 1463 1465 1465 1467 1468 1469 1469 1470 1471 1473 1474 1474 1474
1476 1474 1473 1474 1473 1472 1470 1468 1467 1465 1464 1463 1463 1462 1461 1461 1461 1461 1460 1461 1460 1460 1460 1458 1459 1460 1460 1460 1461 1463 1462 1460 1462 1464 1464 1463 1465 1466 1467 1467 1468 1469 1469
1475 1471 1470 1470 1470 1469 1467 1465 1463 1462 1461 1460 1460 1459 1458 1459 1458 1458 1458 1458 1458 1457 1456 1456 1456 1457 1458 1458 1459 1460 1460 1459 1460 1460 1461 1460 1461 1462 1463 1464 1464 1464 1464
1477 1470 1468 1467 1466 1465 1463 1462 1459 1458 1457 1456 1456 1455 1455 1454 1454 1454 1454 1454 1455 1455 1454 1452 1453 1454 1455 1455 1456 1457 1457 1456 1455 1457 1457 1459 1460 1459 1459 1460 1460 1460 1459
1477 1470 1466 1464 1462 1461 1458 1456 1455 1453 1453 1452 1452 1452 1453 1452 1450 1450 1451 1450 1451 1452 1452 1450 1450 1451 1452 1453 1453 1453 1454 1453 1452 1453 1455 1457 1458 1456 1455 1456 1456 1455 1454